Date String (YYYY-MM-DD hh:mm:ss) UTC,Instrument flags,absolute air pressure of the measurement (hPa),sample flow rate (lpm),inlet stack bypass flow (lpm),air temperature of the measurement (°C),ambient temperature measured by the external sensor (°C),aerosol sample conditioner tube jacket temperature (°C),OPC LED temperature (°C),internal box temperature (°C),relative humidity of the measurement (%),span deviation,mass concentration of particles derived from Lorenz-Mie calculation of OPC scattering (μg/m³),mass concentration of particles derived from Lorenz-Mie calculation of OPC scattering (μg/m³),mass concentration of particles derived from Lorenz-Mie calculation of OPC scattering (μg/m³)
DateTimeUTC,F1_M11,P_M11,Q1_M11,Q2_M11,T1_M11,T2_M11,T3_M11,T4_M11,T5_M11,U1_M11,ZSPAN_M11,X0_M11,X2_M11,X1_M11
2023-10-24 15:00:00,SystemResetWarning,0826.6,5.00,000.00,028.1,026.7,000.0,036.4,029.8,19.5,0000.0,0020.19,0005.64,0003.84
2023-10-24 15:01:00,SystemResetWarning,0826.6,4.99,000.00,028.1,026.7,000.0,036.4,029.8,19.8,0000.0,0020.46,0005.67,0003.86
2023-10-24 15:02:00,SystemResetWarning,0826.6,5.00,000.00,028.1,026.7,000.0,036.4,029.8,19.8,0000.0,0019.87,0005.67,0003.86
2023-10-24 15:03:00,SystemResetWarning,0826.6,5.00,000.00,028.1,026.7,000.0,036.4,029.8,19.8,0000.0,0020.19,0005.76,0003.86
2023-10-24 15:04:00,SystemResetWarning,0826.6,5.01,000.00,028.1,026.8,000.0,036.5,029.8,19.7,0000.0,0020.70,0005.83,0003.85
2023-10-24 15:05:00,SystemResetWarning,0826.6,5.01,000.00,028.1,026.8,000.0,036.5,029.8,19.7,0000.0,0020.62,0005.82,0003.85
2023-10-24 15:06:00,SystemResetWarning,0826.6,5.00,000.00,028.1,026.8,000.0,036.5,029.8,19.7,0000.0,0021.19,0005.78,0003.84
2023-10-24 15:07:00,SystemResetWarning,0826.6,5.00,000.00,028.1,026.8,000.0,036.5,029.8,19.7,0000.0,0020.64,0005.72,0003.83
2023-10-24 15:08:00,SystemResetWarning,0826.6,4.98,000.00,028.2,026.8,000.0,036.5,029.9,19.7,0000.0,0020.07,0005.74,0003.82
2023-10-24 15:09:00,SystemResetWarning,0826.6,5.00,000.00,028.2,026.8,000.0,036.5,029.9,19.6,0000.0,0020.36,0005.69,0003.80
2023-10-24 15:10:00,SystemResetWarning,0826.6,5.01,000.00,028.2,026.8,000.0,036.5,029.9,19.3,0000.0,0020.61,0005.67,0003.79
2023-10-24 15:11:00,SystemResetWarning,0826.6,5.00,000.00,028.2,026.8,000.0,036.5,029.9,18.9,0000.0,0021.51,0005.70,0003.79
2023-10-24 15:12:00,SystemResetWarning,0826.6,5.01,000.00,028.2,026.8,000.0,036.5,029.9,18.7,0000.0,0021.45,0005.73,0003.77
2023-10-24 15:13:00,SystemResetWarning,0826.6,4.98,000.00,028.2,026.9,000.0,036.5,029.9,18.6,0000.0,0021.70,0005.78,0003.78
2023-10-24 15:14:00,SystemResetWarning,0826.6,5.01,000.00,028.2,026.9,000.0,036.6,029.9,18.5,0000.0,0022.66,0005.75,0003.78
2023-10-24 15:15:00,SystemResetWarning,0826.6,5.01,000.00,028.2,026.9,000.0,036.6,029.9,18.6,0000.0,0022.73,0005.72,0003.79
2023-10-24 15:16:00,SystemResetWarning,0826.6,4.99,000.00,028.2,026.9,000.0,036.6,029.9,18.7,0000.0,0022.98,0005.68,0003.79
2023-10-24 15:17:00,SystemResetWarning,0826.6,4.99,000.00,028.2,026.9,000.0,036.6,029.9,18.8,0000.0,0023.80,0005.74,0003.80
2023-10-24 15:18:00,SystemResetWarning,0826.6,5.01,000.00,028.2,026.9,000.0,036.6,029.9,18.9,0000.0,0023.44,0005.74,0003.80
2023-10-24 15:19:00,SystemResetWarning,0826.6,5.00,000.00,028.2,026.9,000.0,036.6,029.9,18.8,0000.0,0024.41,0005.77,0003.82
2023-10-24 15:20:00,SystemResetWarning,0826.6,5.01,000.00,028.3,026.9,000.0,036.6,029.9,18.3,0000.0,0024.31,0005.83,0003.82
2023-10-24 15:21:00,SystemResetWarning,0826.6,5.00,000.00,028.3,026.9,000.0,036.6,030.0,17.0,0000.0,0023.90,0005.95,0003.83
2023-10-24 15:22:00,SystemResetWarning,0826.6,4.99,000.00,028.3,026.9,000.0,036.7,030.0,16.8,0000.0,0022.90,0006.00,0003.83
2023-10-24 15:23:00,SystemResetWarning,0826.6,5.00,000.00,028.3,026.9,000.0,036.7,029.9,17.1,0000.0,0022.87,0006.00,0003.84
2023-10-24 15:24:00,SystemResetWarning,0826.6,4.99,000.00,028.3,027.0,000.0,036.7,030.0,17.8,0000.0,0022.95,0005.98,0003.84
2023-10-24 15:25:00,SystemResetWarning,0826.6,5.00,000.00,028.3,027.0,000.0,036.7,030.0,17.9,0000.0,0022.62,0006.04,0003.84
2023-10-24 15:26:00,SystemResetWarning,0826.6,4.99,000.00,028.3,027.0,000.0,036.7,030.0,17.8,0000.0,0021.50,0006.05,0003.83
2023-10-24 15:27:00,SystemResetWarning,0826.6,5.00,000.00,028.3,027.0,000.0,036.7,030.0,18.7,0000.0,0020.95,0006.09,0003.84
2023-10-24 15:28:00,SystemResetWarning,0826.6,5.00,000.00,028.3,027.0,000.0,036.7,030.0,19.6,0000.0,0020.75,0006.04,0003.83
2023-10-24 15:29:00,SystemResetWarning,0826.6,5.00,000.00,028.3,027.0,000.0,036.7,030.0,19.7,0000.0,0020.60,0006.11,0003.82
2023-10-24 15:30:00,SystemResetWarning,0826.6,5.01,000.00,028.4,027.0,000.0,036.7,030.0,19.6,0000.0,0020.14,0006.12,0003.82
2023-10-24 15:31:00,SystemResetWarning,0826.6,5.00,000.00,028.4,027.1,000.0,036.7,030.0,19.5,0000.0,0020.87,0006.07,0003.83
2023-10-24 15:32:00,SystemResetWarning,0826.6,5.01,000.00,028.4,027.1,000.0,036.7,030.1,19.6,0000.0,0021.65,0006.00,0003.83
2023-10-24 15:33:00,SystemResetWarning,0826.6,5.00,000.00,028.4,027.1,000.0,036.7,030.1,19.6,0000.0,0020.95,0005.97,0003.85
2023-10-24 15:34:00,SystemResetWarning,0826.6,5.00,000.00,028.4,027.1,000.0,036.8,030.1,19.3,0000.0,0021.46,0005.99,0003.84
2023-10-24 15:35:00,SystemResetWarning,0826.6,4.99,000.00,028.4,027.1,000.0,036.8,030.1,19.3,0000.0,0021.32,0006.03,0003.84
2023-10-24 15:36:00,SystemResetWarning,0826.6,4.99,000.00,028.4,027.1,000.0,036.8,030.1,19.4,0000.0,0020.80,0006.01,0003.85
2023-10-24 15:37:00,SystemResetWarning,0826.6,5.00,000.00,028.4,027.1,000.0,036.8,030.1,19.3,0000.0,0021.28,0006.00,0003.86
2023-10-24 15:38:00,SystemResetWarning,0826.6,5.00,000.00,028.5,027.1,000.0,036.8,030.1,19.2,0000.0,0022.63,0006.03,0003.86
2023-10-24 15:39:00,SystemResetWarning,0826.6,5.00,000.00,028.5,027.1,000.0,036.8,030.1,19.1,0000.0,0022.74,0006.09,0003.87
2023-10-24 15:40:00,SystemResetWarning,0826.6,5.00,000.00,028.5,027.2,000.0,036.8,030.1,19.0,0000.0,0023.51,0006.09,0003.88
2023-10-24 15:41:00,SystemResetWarning,0826.6,5.00,000.00,028.5,027.2,000.0,036.8,030.2,18.9,0000.0,0023.41,0006.15,0003.90
2023-10-24 15:42:00,SystemResetWarning,0826.6,5.00,000.00,028.5,027.2,000.0,036.8,030.2,18.6,0000.0,0022.35,0006.23,0003.91
2023-10-24 15:43:00,SystemResetWarning,0826.6,5.01,000.00,028.5,027.2,000.0,036.8,030.2,18.5,0000.0,0022.31,0006.33,0003.91
2023-10-24 15:44:00,SystemResetWarning,0826.6,5.00,000.00,028.5,027.2,000.0,036.8,030.2,18.5,0000.0,0023.12,0006.31,0003.90
2023-10-24 15:45:00,SystemResetWarning,0826.6,5.00,000.00,028.5,027.2,000.0,036.9,030.2,18.5,0000.0,0023.55,0006.30,0003.89
2023-10-24 15:46:00,SystemResetWarning,0826.6,5.00,000.00,028.5,027.2,000.0,036.9,030.2,18.5,0000.0,0023.92,0006.31,0003.89
2023-10-24 15:47:00,SystemResetWarning,0826.6,5.00,000.00,028.5,027.2,000.0,036.9,030.2,18.3,0000.0,0023.76,0006.31,0003.89
2023-10-24 15:48:00,SystemResetWarning,0826.6,5.00,000.00,028.6,027.2,000.0,036.9,030.2,18.2,0000.0,0023.73,0006.34,0003.89
2023-10-24 15:49:00,SystemResetWarning,0826.7,5.00,000.00,028.6,027.2,000.0,036.9,030.3,18.1,0000.0,0023.18,0006.37,0003.88
2023-10-24 15:50:00,SystemResetWarning,0826.7,5.00,000.00,028.6,027.2,000.0,036.9,030.3,17.8,0000.0,0022.32,0006.35,0003.86
2023-10-24 15:51:00,SystemResetWarning,0826.7,4.99,000.00,028.6,027.2,000.0,036.9,030.3,17.6,0000.0,0021.48,0006.31,0003.85
2023-10-24 15:52:00,SystemResetWarning,0826.6,5.00,000.00,028.6,027.2,000.0,036.9,030.2,17.4,0000.0,0021.56,0006.27,0003.84
2023-10-24 15:53:00,SystemResetWarning,0826.6,5.00,000.00,028.6,027.2,000.0,036.9,030.3,17.4,0000.0,0021.90,0006.21,0003.82
2023-10-24 15:54:00,SystemResetWarning,0826.6,4.99,000.00,028.6,027.2,000.0,036.9,030.3,17.4,0000.0,0023.41,0006.09,0003.81
2023-10-24 15:55:00,SystemResetWarning,0826.6,5.00,000.00,028.6,027.3,000.0,036.9,030.3,17.3,0000.0,0023.10,0006.04,0003.81
2023-10-24 15:56:00,SystemResetWarning,0826.6,5.00,000.00,028.6,027.3,000.0,037.0,030.3,17.3,0000.0,0023.85,0006.06,0003.82
2023-10-24 15:57:00,SystemResetWarning,0826.6,5.00,000.00,028.6,027.3,000.0,037.0,030.3,17.3,0000.0,0025.78,0006.24,0003.83
2023-10-24 15:58:00,SystemResetWarning,0826.6,5.00,000.00,028.6,027.3,000.0,037.0,030.3,17.2,0000.0,0026.62,0006.41,0003.83
2023-10-24 15:59:00,SystemResetWarning,0826.6,5.00,000.00,028.6,027.3,000.0,037.0,030.4,17.2,0000.0,0027.50,0006.46,0003.82
